Location: Trencin
(48.9000°N, 18.0330°E)
Time: 00:52:22
(UTC+01:00)

ISS - Visible Passes

Search period start: 01 December 2023 00:00
Search period end: 11 December 2023 00:00
Orbit: 416 x 417 km, 51.6° (Epoch: 30 November)

Date Brightness Start Highest point End Pass type
(mag) Time Alt. Az. Time Alt. Az. Time Alt. Az.
01 Dec -3.7 16:41:46 10° WNW 16:45:06 63° NNE 16:48:27 10° E visible
01 Dec -2.5 18:18:37 10° WNW 18:21:30 39° SW 18:21:30 39° SW visible
02 Dec -3.3 17:30:06 10° WNW 17:33:25 59° SSW 17:35:25 21° SE visible
02 Dec -0.3 19:08:06 10° WSW 19:08:21 11° WSW 19:08:21 11° WSW visible
03 Dec -3.7 16:41:35 10° WNW 16:44:57 83° SSW 16:48:18 10° ESE visible
03 Dec -1.3 18:18:51 10° W 18:21:19 19° SW 18:22:26 16° SSW visible
04 Dec -1.8 17:30:00 10° W 17:32:56 29° SW 17:35:52 10° SSE visible
05 Dec -2.5 16:41:15 10° WNW 16:44:27 43° SSW 16:47:38 10° SE visible
06 Dec -0.6 17:30:22 10° WSW 17:32:04 13° SW 17:33:47 10° SSW visible
07 Dec -0.8 16:41:01 10° W 16:43:35 20° SW 16:46:09 10° S visible
